1483675200.49,51075,4.56,72152.3,-28.51,-42.05,-43.09,0,*65
1483675201.78,51076,4.56,72162.0,-28.51,-42.05,-42.83,0,*65
1483675203.03,51077,4.56,72168.5,-28.51,-42.13,-43.15,0,*6D
1483675204.33,51078,4.56,72152.3,-28.51,-42.45,-43.29,0,*6E
1483675205.58,51079,4.56,72148.8,-28.53,-42.25,-43.09,0,*69
1483675206.87,51080,4.56,72176.5,-28.51,-42.05,-43.09,0,*6F
1483675208.15,51081,4.56,72128.8,-28.51,-42.25,-43.09,0,*6C
1483675209.4,51082,4.56,72152.5,-28.53,-42.25,-43.09,0,*6D
1483675210.62,51083,4.56,72174.3,-28.53,-42.25,-43.15,0,*61
1483675211.87,51084,4.56,72170.5,-28.53,-42.31,-43.15,0,*63
1483675213.14,51085,4.56,72140.5,-28.51,-42.45,-43.49,0,*6A
1483675214.39,51086,4.56,72158.3,-28.53,-42.45,-43.35,0,*60
1483675215.69,51087,4.56,72168.5,-28.51,-42.31,-43.29,0,*6D
1483675216.96,51088,4.56,72160.0,-28.53,-42.31,-43.29,0,*60
1483675218.23,51089,4.56,72156.3,-28.53,-42.31,-43.29,0,*61
1483675219.52,51090,4.56,72178.0,-28.51,-42.45,-43.29,0,*68
1483675220.77,51091,4.56,72158.5,-28.53,-42.31,-43.15,0,*67
1483675221.99,51092,4.56,72166.0,-28.53,-42.51,-43.35,0,*60
1483675223.22,51093,4.56,72146.8,-28.53,-42.51,-43.35,0,*61
1483675224.48,51094,4.56,72136.0,-28.53,-42.45,-43.29,0,*6E
1483675225.71,51095,4.56,72140.8,-28.57,-42.37,-43.41,0,*60
1483675226.93,51096,4.56,72144.3,-28.57,-42.37,-43.41,0,*63
1483675228.2,51097,4.56,72144.5,-28.57,-42.19,-43.21,0,*68
1483675229.48,51098,4.56,72148.0,-28.57,-42.31,-43.55,0,*6E
1483675230.75,51099,4.56,72132.0,-28.57,-42.19,-43.55,0,*65
1483675231.98,51100,4.56,72134.0,-28.57,-42.13,-43.41,0,*6B
1483675233.25,51101,4.56,72142.5,-28.57,-42.31,-43.55,0,*6F
1483675234.5,51102,4.56,72136.5,-28.57,-42.19,-43.41,0,*63
1483675235.73,51103,4.56,72124.5,-28.53,-42.25,-43.35,0,*6A
1483675236.98,51104,4.56,72126.5,-28.53,-42.31,-43.49,0,*63
1483675238.23,51105,4.56,72156.0,-28.53,-42.31,-43.49,0,*62
1483675239.44,51106,4.56,72154.0,-28.57,-42.51,-43.75,0,*6C
1483675240.66,51107,4.56,72150.5,-28.53,-42.63,-43.87,0,*65
1483675241.87,51108,4.56,72144.5,-28.53,-42.51,-43.87,0,*6B
1483675243.12,51109,4.56,72146.8,-28.53,-42.31,-43.75,0,*61
1483675244.36,51110,4.56,72168.0,-28.57,-42.37,-43.81,0,*60
1483675245.6,51111,4.56,72156.0,-28.53,-42.45,-43.87,0,*66
1483675246.87,51112,4.56,72154.3,-28.53,-42.31,-43.67,0,*68
1483675248.09,51113,4.56,72146.8,-28.53,-42.63,-43.87,0,*60
1483675249.31,51114,4.56,72134.3,-28.53,-42.51,-43.75,0,*6B
1483675250.52,51115,4.56,72124.5,-28.53,-42.63,-43.75,0,*6B
1483675251.76,51116,4.56,72144.3,-28.53,-42.83,-43.87,0,*6B
1483675253.01,51117,4.56,72120.0,-28.53,-42.69,-43.95,0,*6D
1483675254.23,51118,4.56,72134.5,-28.53,-42.89,-43.95,0,*6C
1483675255.47,51119,4.56,72112.5,-28.53,-42.69,-43.87,0,*60
1483675256.69,51120,4.56,72156.0,-28.53,-42.51,-43.75,0,*6C
1483675257.93,51121,4.56,72134.8,-28.53,-42.45,-43.49,0,*67
1483675259.21,51122,4.56,72148.8,-28.53,-41.93,-42.95,0,*6C
1483675260.43,51123,4.56,72124.0,-28.53,-42.25,-43.49,0,*63
1483675261.66,51124,4.5,72124.5,-28.53,-42.25,-43.15,0,*6D
1483675262.92,51125,4.56,72144.3,-28.53,-41.93,-43.29,0,*6D
1483675264.2,51126,4.56,72104.0,-28.53,-42.31,-43.55,0,*6E
1483675265.45,51127,4.56,72142.3,-28.53,-42.51,-43.67,0,*68
1483675266.69,51128,4.56,72142.5,-28.53,-42.05,-43.49,0,*6A
1483675267.91,51129,4.56,72136.3,-28.53,-42.25,-43.49,0,*69
1483675269.14,51130,4.56,72146.3,-28.53,-42.13,-43.35,0,*6F
1483675270.39,51131,4.56,72158.8,-28.51,-42.13,-43.49,0,*67
1483675271.64,51132,4.56,72162.8,-28.53,-42.25,-43.55,0,*6E
1483675272.91,51133,4.56,72162.8,-28.53,-42.45,-43.67,0,*68
1483675274.19,51134,4.56,72170.5,-28.53,-42.31,-43.55,0,*6D
1483675275.44,51135,4.56,72182.3,-28.51,-42.25,-43.49,0,*66
1483675276.71,51136,4.56,72182.0,-28.51,-42.51,-43.67,0,*6A
1483675278.01,51137,4.56,72162.8,-28.51,-42.45,-43.55,0,*6F
1483675279.23,51138,4.56,72150.0,-28.53,-42.51,-43.75,0,*65
1483675280.5,51139,4.56,72176.5,-28.51,-42.31,-43.49,0,*6F
1483675281.75,51140,4.56,72172.3,-28.53,-42.31,-43.49,0,*63
1483675283.0,51141,4.56,72174.3,-28.53,-42.51,-43.67,0,*68
1483675284.27,51142,4.56,72178.8,-28.53,-42.69,-43.67,0,*60
1483675285.51,51143,4.56,72156.5,-28.53,-42.83,-43.75,0,*66
1483675286.76,51144,4.56,72160.8,-28.53,-43.09,-44.07,0,*60
1483675288.03,51145,4.56,72138.8,-28.51,-43.09,-44.07,0,*63
1483675289.28,51146,4.56,72150.0,-28.53,-43.09,-43.95,0,*6E
1483675290.53,51147,4.56,72152.5,-28.53,-43.09,-44.07,0,*63
1483675291.78,51148,4.56,72144.3,-28.53,-42.95,-44.07,0,*68
1483675293.03,51149,4.56,72152.0,-28.53,-43.09,-43.95,0,*61
1483675294.27,51150,4.56,72138.3,-28.53,-43.09,-44.07,0,*65
1483675295.49,51151,4.56,72174.5,-28.57,-42.75,-43.75,0,*68
1483675296.73,51152,4.56,72182.5,-28.57,-42.69,-43.75,0,*66
1483675298.0,51153,4.56,72168.8,-28.57,-42.95,-43.81,0,*6F
1483675299.25,51154,4.56,72158.0,-28.57,-43.01,-44.01,0,*6B
1483675300.52,51155,4.56,72152.8,-28.57,-42.95,-43.81,0,*69
1483675301.76,51156,4.56,72168.3,-28.53,-43.09,-43.87,0,*6C
1483675303.01,51157,4.56,72186.3,-28.53,-43.09,-43.95,0,*6E
1483675304.25,51158,4.56,72150.5,-28.53,-42.63,-43.55,0,*60
1483675305.5,51159,4.56,72166.5,-28.53,-42.89,-43.67,0,*64
1483675306.77,51160,4.56,72168.3,-28.51,-43.09,-44.07,0,*64
1483675308.02,51161,4.56,72190.0,-28.53,-42.63,-43.67,0,*6B
1483675309.27,51162,4.56,72196.8,-28.53,-42.45,-43.15,0,*69
1483675310.56,51163,4.56,72182.8,-28.51,-42.69,-43.67,0,*61
1483675311.81,51164,4.56,72190.5,-28.51,-42.89,-43.75,0,*6B
1483675313.06,51165,4.56,72198.3,-28.53,-42.95,-43.75,0,*65
1483675314.3,51166,4.56,72186.5,-28.53,-42.83,-43.75,0,*61
1483675315.58,51167,4.56,72174.0,-28.51,-42.45,-43.35,0,*6C
1483675316.85,51168,4.56,72172.3,-28.51,-42.31,-43.15,0,*62
1483675318.15,51169,4.56,72170.5,-28.51,-42.83,-43.67,0,*6F
1483675319.39,51170,4.56,72186.3,-28.53,-42.95,-43.87,0,*6C
1483675320.63,51171,4.56,72172.3,-28.53,-43.35,-44.13,0,*6C
1483675321.88,51172,4.56,72182.3,-28.53,-43.09,-43.95,0,*69
1483675323.12,51173,4.56,72166.8,-28.53,-43.09,-43.87,0,*6B
1483675324.37,51174,4.56,72154.3,-28.53,-43.09,-43.87,0,*6C
1483675325.61,51175,4.56,72138.3,-28.53,-43.29,-43.95,0,*6C
1483675326.83,51176,4.56,72140.5,-28.53,-42.89,-43.75,0,*6A
1483675328.07,51177,4.56,72152.5,-28.53,-42.83,-43.87,0,*6C
1483675329.31,51178,4.56,72164.3,-28.53,-42.83,-43.75,0,*6E
1483675330.59,51179,4.56,72164.0,-28.53,-42.95,-43.67,0,*6B
1483675331.84,51180,4.5,72162.3,-28.53,-43.09,-43.75,0,*6A
1483675333.11,51181,4.5,72158.5,-28.53,-42.83,-43.67,0,*6B
1483675334.32,51182,4.56,72140.8,-28.53,-42.89,-43.87,0,*6C
1483675335.54,51183,4.56,72144.3,-28.53,-42.89,-43.87,0,*6D
1483675336.78,51184,4.56,72160.8,-28.53,-42.95,-43.87,0,*67
1483675338.02,51185,4.56,72156.3,-28.51,-43.15,-44.07,0,*62
1483675339.3,51186,4.56,72154.0,-28.51,-42.95,-43.95,0,*64
1483675340.52,51187,4.56,72166.8,-28.53,-42.89,-43.75,0,*64
1483675341.74,51188,4.56,72154.8,-28.53,-42.89,-43.87,0,*66
1483675343.01,51189,4.5,72144.0,-28.53,-42.83,-43.67,0,*63
1483675344.24,51190,4.56,72154.3,-28.53,-42.83,-43.87,0,*65
1483675345.51,51191,4.56,72162.8,-28.51,-42.83,-43.75,0,*6B
1483675346.76,51192,4.56,72168.0,-28.53,-42.69,-43.75,0,*6E
1483675348.03,51193,4.56,72160.0,-28.51,-42.95,-43.87,0,*63
1483675349.28,51194,4.56,72164.5,-28.53,-43.09,-43.95,0,*61
1483675350.53,51195,4.56,72148.0,-28.53,-42.95,-44.07,0,*68
1483675351.77,51196,4.56,72152.8,-28.53,-43.35,-44.21,0,*64
1483675352.98,51197,4.5,72138.5,-28.53,-43.35,-44.41,0,*63
1483675354.2,51198,4.56,72144.5,-28.53,-43.15,-44.07,0,*6C
1483675355.42,51199,4.56,72136.0,-28.53,-43.15,-43.95,0,*61
1483675356.63,51200,4.56,72134.3,-28.57,-43.41,-44.41,0,*69
1483675357.88,51201,4.5,72138.8,-28.57,-43.35,-44.21,0,*6D
1483675359.12,51202,4.56,72124.0,-28.59,-43.35,-44.27,0,*66
1483675360.36,51203,4.56,72140.8,-28.57,-43.35,-44.21,0,*6F
1483675361.62,51204,4.56,72144.8,-28.57,-43.21,-44.13,0,*6C
1483675362.86,51205,4.56,72162.0,-28.59,-43.35,-44.27,0,*61
1483675364.13,51206,4.56,72128.8,-28.57,-43.21,-44.21,0,*6F
1483675365.37,51207,4.56,72118.5,-28.57,-43.15,-44.21,0,*69
1483675366.64,51208,4.56,72118.0,-28.59,-43.01,-44.01,0,*6F
1483675367.9,51209,4.56,72128.5,-28.57,-43.21,-44.13,0,*61
1483675369.17,51210,4.56,72176.0,-28.59,-43.15,-44.01,0,*63
1483675370.39,51211,4.5,72148.0,-28.57,-43.01,-43.95,0,*63
1483675371.61,51212,4.56,72154.5,-28.57,-43.41,-44.27,0,*6A
1483675372.9,51213,4.56,72112.3,-28.59,-43.21,-44.21,0,*65
1483675374.15,51214,4.56,72116.8,-28.57,-43.15,-44.21,0,*6B
1483675375.41,51215,4.56,72096.8,-28.57,-43.21,-44.13,0,*6C
1483675376.65,51216,4.56,72114.5,-28.57,-43.15,-44.01,0,*6B
1483675377.91,51217,4.56,72108.0,-28.57,-43.21,-44.01,0,*6D
1483675379.17,51218,4.56,72114.3,-28.57,-43.21,-44.13,0,*61
1483675380.42,51219,4.56,72110.0,-28.59,-43.41,-44.27,0,*6F
1483675381.68,51220,4.56,72104.8,-28.59,-43.35,-44.21,0,*60
1483675382.97,51221,4.56,72086.8,-28.59,-43.21,-44.13,0,*65
1483675384.21,51222,4.56,72120.5,-28.59,-43.15,-43.95,0,*68
1483675385.47,51223,4.56,72116.8,-28.59,-43.15,-43.81,0,*6C
1483675386.71,51224,4.56,72116.5,-28.57,-43.15,-44.01,0,*6A
1483675387.99,51225,4.56,72110.0,-28.59,-42.95,-43.95,0,*66
1483675389.27,51226,4.56,72112.5,-28.59,-43.21,-44.01,0,*61
1483675390.54,51227,4.56,72120.3,-28.59,-43.01,-44.01,0,*62
1483675391.79,51228,4.5,72142.3,-28.59,-42.75,-43.75,0,*6B
1483675393.03,51229,4.56,72142.0,-28.57,-42.69,-43.61,0,*6C
1483675394.28,51230,4.56,72166.3,-28.57,-42.57,-43.61,0,*69
1483675395.54,51231,4.56,72164.5,-28.59,-42.89,-43.81,0,*6B
1483675396.76,51232,4.56,72174.3,-28.57,-42.75,-43.61,0,*6B
1483675398.03,51233,4.56,72198.0,-28.59,-42.57,-43.41,0,*66
1483675399.29,51234,4.5,72188.0,-28.59,-42.57,-43.61,0,*63
1483675400.56,51235,4.5,72186.5,-28.59,-42.57,-43.41,0,*60
1483675401.78,51236,4.56,72162.3,-28.57,-42.75,-43.75,0,*6A
1483675403.0,51237,4.5,72146.8,-28.57,-42.75,-43.75,0,*6B
1483675404.22,51238,4.56,72142.5,-28.57,-42.89,-43.95,0,*69
1483675405.49,51239,4.56,72172.3,-28.59,-43.01,-43.81,0,*62
1483675406.79,51240,4.56,72162.5,-28.59,-42.95,-43.81,0,*60
1483675408.0,51241,4.5,72154.5,-28.57,-42.75,-43.75,0,*6A
1483675409.25,51242,4.56,72164.5,-28.59,-43.01,-43.95,0,*6B
1483675410.54,51243,4.56,72156.8,-28.59,-43.21,-44.13,0,*61
1483675411.8,51244,4.56,72172.5,-28.57,-43.21,-44.01,0,*6B
1483675413.07,51245,4.5,72158.0,-28.59,-43.15,-44.13,0,*60
1483675414.33,51246,4.56,72168.8,-28.59,-43.35,-44.21,0,*60
1483675415.6,51247,4.56,72166.8,-28.59,-43.35,-44.21,0,*61
1483675416.84,51248,4.56,72164.0,-28.57,-43.55,-44.27,0,*60
1483675418.11,51249,4.56,72170.8,-28.59,-43.41,-44.21,0,*6C
1483675419.36,51250,4.5,72150.8,-28.59,-43.41,-44.27,0,*62
1483675420.6,51251,4.56,72138.8,-28.59,-43.41,-44.41,0,*63
1483675421.86,51252,4.56,72138.0,-28.61,-43.67,-44.67,0,*6B
1483675423.13,51253,4.56,72140.5,-28.61,-43.67,-44.67,0,*6A
1483675424.35,51254,4.56,72146.8,-28.61,-43.61,-44.53,0,*6C
1483675425.59,51255,4.56,72186.8,-28.61,-43.49,-44.47,0,*62
1483675426.84,51256,4.56,72160.8,-28.61,-43.61,-44.47,0,*6B
1483675428.11,51257,4.56,72156.0,-28.63,-43.61,-44.47,0,*68
1483675429.35,51258,4.56,72120.0,-28.61,-43.61,-44.47,0,*65
1483675430.6,51259,4.56,72110.0,-28.61,-43.61,-44.33,0,*67
1483675431.85,51260,4.56,72140.5,-28.63,-43.49,-44.27,0,*60
1483675433.1,51261,4.56,72118.8,-28.61,-43.01,-44.01,0,*6B
1483675434.37,51262,4.56,72124.5,-28.63,-43.21,-44.07,0,*6E
1483675435.67,51263,4.56,72132.0,-28.63,-43.21,-44.01,0,*69
1483675436.9,51264,4.5,72136.3,-28.61,-43.21,-43.87,0,*65
1483675438.13,51265,4.5,72146.3,-28.61,-43.01,-43.87,0,*66
1483675439.35,51266,4.56,72112.5,-28.61,-43.01,-43.87,0,*65
1483675440.62,51267,4.56,72114.0,-28.61,-43.21,-44.01,0,*6F
1483675441.9,51268,4.56,72126.0,-28.63,-43.01,-44.01,0,*60
1483675443.17,51269,4.56,72136.0,-28.63,-42.57,-43.87,0,*6A
1483675444.47,51270,4.56,72148.3,-28.63,-42.95,-43.81,0,*6A
1483675445.77,51271,4.56,72156.3,-28.63,-42.95,-44.01,0,*64
1483675447.07,51272,4.56,72138.8,-28.63,-42.95,-44.01,0,*67
1483675448.34,51273,4.56,72146.8,-28.63,-42.83,-43.87,0,*68
1483675449.59,51274,4.5,72136.8,-28.63,-43.01,-43.87,0,*64
1483675450.89,51275,4.56,72140.3,-28.63,-43.21,-44.21,0,*6C
1483675452.14,51276,4.5,72132.8,-28.63,-43.41,-44.27,0,*6F
1483675453.39,51277,4.56,72142.8,-28.63,-43.41,-44.27,0,*6E
1483675454.61,51278,4.56,72142.8,-28.61,-43.41,-44.07,0,*61
1483675455.9,51279,4.56,72136.3,-28.63,-43.01,-43.67,0,*67
1483675457.19,51280,4.5,72140.8,-28.63,-43.29,-44.01,0,*6C
1483675458.46,51281,4.56,72148.3,-28.63,-43.21,-44.07,0,*63
1483675459.74,51282,4.5,72148.5,-28.63,-43.41,-44.21,0,*62
1483675461.01,51283,4.56,72150.5,-28.63,-43.49,-44.33,0,*68
1483675462.24,51284,4.5,72146.3,-28.61,-43.49,-44.27,0,*68
1483675463.48,51285,4.5,72148.8,-28.61,-43.41,-44.33,0,*64
1483675464.76,51286,4.56,72140.8,-28.63,-43.49,-44.33,0,*6D
1483675465.98,51287,4.56,72156.0,-28.61,-43.49,-44.27,0,*6B
1483675467.23,51288,4.56,72154.3,-28.61,-43.61,-44.33,0,*6B
1483675468.46,51289,4.56,72158.8,-28.61,-43.61,-44.27,0,*6F
1483675469.73,51290,4.56,72156.3,-28.63,-43.61,-44.47,0,*63
1483675471.0,51291,4.56,72148.5,-28.63,-43.67,-44.53,0,*61
1483675472.27,51292,4.56,72154.0,-28.67,-43.67,-44.53,0,*66
1483675473.56,51293,4.56,72146.0,-28.67,-43.67,-44.33,0,*61
1483675474.81,51294,4.56,72144.0,-28.63,-43.49,-44.27,0,*6B
1483675476.09,51295,4.56,72148.5,-28.67,-43.67,-44.41,0,*62
1483675477.33,51296,4.56,72158.8,-28.67,-43.87,-44.61,0,*6D
1483675478.6,51297,4.56,72146.3,-28.67,-43.67,-44.53,0,*63
1483675479.87,51298,4.5,72158.3,-28.67,-43.67,-44.41,0,*6F
1483675481.14,51299,4.5,72146.5,-28.67,-43.67,-44.41,0,*6E
1483675482.41,51300,4.5,72158.8,-28.67,-43.55,-44.41,0,*6E
1483675483.68,51301,4.5,72132.3,-28.67,-43.55,-44.53,0,*6C
1483675484.94,51302,4.5,72136.5,-28.71,-43.67,-44.53,0,*69
1483675486.2,51303,4.5,72156.3,-28.71,-43.29,-44.07,0,*63
1483675487.45,51304,4.56,72140.3,-28.71,-43.49,-44.27,0,*60
1483675488.71,51305,4.56,72140.3,-28.71,-43.49,-44.13,0,*66
1483675489.95,51306,4.56,72150.0,-28.71,-43.49,-44.27,0,*62
1483675491.2,51307,4.56,72152.3,-28.71,-43.75,-44.41,0,*6C
1483675492.46,51308,4.5,72156.0,-28.71,-43.67,-44.41,0,*60
1483675493.74,51309,4.5,72164.8,-28.71,-43.81,-44.47,0,*6F
1483675495.0,51310,4.56,72156.3,-28.71,-43.81,-44.41,0,*61
1483675496.27,51311,4.56,72158.3,-28.71,-43.67,-44.41,0,*68
1483675497.56,51312,4.5,72118.5,-28.71,-43.55,-44.33,0,*6F
1483675498.8,51313,4.5,72118.3,-28.71,-43.35,-44.07,0,*6F
1483675500.04,51314,4.56,72116.8,-28.71,-43.49,-44.27,0,*61
1483675501.3,51315,4.56,72138.3,-28.71,-43.41,-44.13,0,*6F
1483675502.57,51316,4.5,72102.8,-28.71,-43.41,-44.01,0,*6F
1483675503.86,51317,4.5,72116.8,-28.71,-42.95,-43.81,0,*69
1483675505.14,51318,4.5,72100.3,-28.71,-42.95,-43.95,0,*63
1483675506.41,51319,4.56,72120.8,-28.71,-43.09,-43.87,0,*65
1483675507.65,51320,4.56,72122.8,-28.67,-42.89,-43.87,0,*61
1483675508.93,51321,4.56,72128.0,-28.71,-43.01,-43.67,0,*68
1483675510.18,51322,4.56,72128.8,-28.67,-43.01,-43.87,0,*62
1483675511.44,51323,4.56,72130.5,-28.71,-43.29,-44.07,0,*61
1483675512.69,51324,4.5,72122.3,-28.71,-43.49,-44.27,0,*62
1483675513.97,51325,4.5,72120.0,-28.71,-43.55,-44.33,0,*6B
1483675515.24,51326,4.5,72144.3,-28.71,-43.29,-43.95,0,*68
1483675516.51,51327,4.56,72150.3,-28.71,-43.55,-44.27,0,*6C
1483675517.75,51328,4.5,72146.8,-28.71,-43.49,-44.07,0,*6C
1483675518.99,51329,4.5,72102.3,-28.71,-43.49,-44.07,0,*6D
1483675520.28,51330,4.5,72104.8,-28.71,-43.55,-44.13,0,*6D
1483675521.55,51331,4.56,72126.5,-28.71,-43.49,-44.13,0,*61
1483675522.79,51332,4.56,72128.8,-28.71,-43.15,-43.95,0,*62
1483675524.05,51333,4.56,72130.5,-28.71,-43.15,-44.13,0,*6A
1483675525.3,51334,4.56,72150.0,-28.71,-42.75,-43.95,0,*63
1483675526.57,51335,4.56,72136.0,-28.71,-42.69,-43.75,0,*61
1483675527.83,51336,4.5,72120.5,-28.71,-43.21,-43.95,0,*61
1483675529.07,51337,4.5,72120.5,-28.71,-43.49,-44.07,0,*62
1483675530.34,51338,4.5,72124.0,-28.71,-43.35,-44.01,0,*60
1483675531.6,51339,4.56,72126.5,-28.71,-43.15,-44.01,0,*63
1483675532.87,51340,4.5,72122.8,-28.71,-43.09,-43.95,0,*6A
1483675534.16,51341,4.56,72134.5,-28.71,-43.21,-44.01,0,*6B
1483675535.45,51342,4.5,72140.0,-28.71,-43.55,-44.13,0,*68
1483675536.71,51343,4.56,72136.0,-28.71,-43.35,-44.01,0,*6C
1483675538.0,51344,4.56,72138.3,-28.71,-43.09,-44.01,0,*64
1483675539.27,51345,4.56,72150.3,-28.71,-43.15,-44.21,0,*6A
1483675540.51,51346,4.56,72138.8,-28.71,-43.15,-44.07,0,*6D
1483675541.77,51347,4.5,72142.3,-28.71,-43.15,-44.01,0,*6A
1483675543.01,51348,4.5,72122.8,-28.73,-43.41,-44.33,0,*67
1483675544.27,51349,4.5,72122.8,-28.71,-43.35,-44.13,0,*65
1483675545.55,51350,4.5,72120.5,-28.71,-43.41,-44.21,0,*6F
1483675546.83,51351,4.56,72122.8,-28.71,-43.55,-44.33,0,*68
1483675548.08,51352,4.5,72112.5,-28.73,-43.41,-44.13,0,*6E
1483675549.35,51353,4.56,72100.3,-28.71,-43.61,-44.33,0,*6D
1483675550.61,51354,4.56,72116.0,-28.71,-43.41,-44.13,0,*6A
1483675551.89,51355,4.56,72150.8,-28.71,-43.41,-44.21,0,*6A
1483675553.17,51356,4.56,72096.0,-28.71,-43.21,-44.01,0,*6D
1483675554.41,51357,4.56,72118.3,-28.73,-43.41,-44.01,0,*68
1483675555.68,51358,4.56,72116.8,-28.71,-43.41,-44.01,0,*65
1483675556.97,51359,4.56,72078.8,-28.71,-43.55,-44.21,0,*63
1483675558.22,51360,4.56,72124.5,-28.71,-42.89,-43.75,0,*6F
1483675559.48,51361,4.5,72094.8,-28.71,-43.41,-44.13,0,*6C
1483675560.75,51362,4.56,72100.0,-28.71,-43.41,-44.21,0,*6E
1483675562.02,51363,4.56,72092.5,-28.71,-43.35,-44.13,0,*6D
1483675563.28,51364,4.5,72118.3,-28.71,-43.35,-44.13,0,*6A
1483675564.52,51365,4.56,72124.0,-28.71,-43.35,-44.27,0,*6C
1483675565.81,51366,4.5,72124.5,-28.71,-43.29,-44.13,0,*65
1483675567.05,51367,4.56,72124.0,-28.71,-43.49,-44.53,0,*66
1483675568.31,51368,4.56,72170.8,-28.71,-43.35,-44.13,0,*66
1483675569.55,51369,4.56,72154.0,-28.71,-42.89,-43.95,0,*68
1483675570.84,51370,4.56,72132.8,-28.71,-42.95,-43.81,0,*68
1483675572.13,51371,4.5,72118.5,-28.71,-43.21,-44.21,0,*6A
1483675573.4,51372,4.56,72140.5,-28.71,-43.29,-44.07,0,*65
1483675574.66,51373,4.5,72128.8,-28.71,-43.15,-44.13,0,*6E
1483675575.9,51374,4.56,72136.5,-28.71,-43.35,-44.27,0,*6C
1483675577.17,51375,4.5,72150.8,-28.71,-43.29,-44.07,0,*62
1483675578.4,51376,4.5,72138.8,-28.71,-43.15,-44.07,0,*6E
1483675579.67,51377,4.56,72154.8,-28.71,-43.09,-44.07,0,*62
1483675580.94,51378,4.5,72122.5,-28.71,-43.29,-44.27,0,*6D
1483675582.23,51379,4.56,72126.5,-28.67,-43.29,-44.33,0,*6E
1483675583.5,51380,4.5,72126.8,-28.71,-43.15,-44.13,0,*62
1483675584.79,51381,4.56,72148.0,-28.71,-43.09,-44.21,0,*6F
1483675586.09,51382,4.5,72168.5,-28.71,-42.31,-43.55,0,*62
1483675587.36,51383,4.5,72172.8,-28.71,-42.45,-43.49,0,*6D
1483675588.62,51384,4.5,72166.8,-28.71,-43.09,-43.87,0,*61
1483675589.89,51385,4.5,72160.8,-28.71,-43.29,-43.95,0,*61
1483675591.13,51386,4.5,72174.0,-28.71,-43.35,-43.95,0,*6F
1483675592.42,51387,4.5,72166.8,-28.71,-43.29,-44.13,0,*6A
1483675593.67,51388,4.56,72146.0,-28.71,-43.49,-44.27,0,*64
1483675594.92,51389,4.5,72146.0,-28.67,-43.15,-43.95,0,*65
1483675596.15,51390,4.5,72144.3,-28.71,-43.35,-44.27,0,*66
1483675597.42,51391,4.56,72152.0,-28.71,-43.35,-44.01,0,*63
1483675598.69,51392,4.5,72168.8,-28.71,-43.09,-44.07,0,*69
1483675599.96,51393,4.56,72154.8,-28.67,-43.29,-44.07,0,*6D
1483675601.23,51394,4.56,72138.3,-28.71,-43.55,-44.27,0,*64
1483675602.46,51395,4.5,72162.5,-28.71,-43.15,-44.07,0,*63
1483675603.74,51396,4.5,72164.8,-28.71,-43.09,-43.95,0,*61
1483675605.0,51397,4.5,72124.8,-28.71,-43.55,-44.41,0,*67
1483675606.29,51398,4.5,72130.5,-28.71,-43.67,-44.33,0,*6C
1483675607.58,51399,4.56,72140.5,-28.71,-43.67,-44.33,0,*6D
1483675608.84,51400,4.56,72150.0,-28.71,-43.55,-44.27,0,*6E
1483675610.11,51401,4.5,72122.5,-28.71,-43.49,-44.33,0,*67
1483675611.37,51402,4.56,72140.5,-28.71,-43.67,-44.41,0,*6D
1483675612.64,51403,4.5,72122.3,-28.71,-43.67,-44.53,0,*6F
1483675613.92,51404,4.56,72152.5,-28.71,-43.55,-44.33,0,*6F
1483675615.19,51405,4.5,72158.0,-28.71,-43.35,-44.01,0,*69
1483675616.43,51406,4.56,72168.3,-28.71,-43.61,-44.41,0,*6F
1483675617.7,51407,4.56,72134.8,-28.71,-43.41,-44.33,0,*69
1483675618.96,51408,4.5,72156.0,-28.71,-43.41,-44.13,0,*64
1483675620.21,51409,4.5,72154.3,-28.71,-43.61,-44.41,0,*60
1483675621.49,51410,4.5,72160.3,-28.71,-44.01,-44.67,0,*6D
1483675622.78,51411,4.5,72142.0,-28.71,-43.81,-44.67,0,*63
1483675624.02,51412,4.5,72126.0,-28.71,-43.75,-44.61,0,*6D
1483675625.3,51413,4.5,72134.5,-28.71,-43.81,-44.47,0,*63
1483675626.57,51414,4.56,72138.8,-28.71,-44.21,-44.87,0,*65
1483675627.84,51415,4.56,72116.3,-28.71,-44.13,-44.79,0,*64
1483675629.1,51416,4.5,72118.5,-28.71,-43.81,-44.61,0,*62
1483675630.32,51417,4.56,72136.8,-28.73,-43.75,-44.61,0,*6A
1483675631.54,51418,4.5,72142.5,-28.73,-43.75,-44.61,0,*65
1483675632.81,51419,4.5,72142.0,-28.71,-43.41,-44.21,0,*65
1483675634.07,51420,4.5,72134.5,-28.71,-43.35,-44.13,0,*6D
1483675635.34,51421,4.5,72140.0,-28.71,-43.61,-44.33,0,*6F
1483675636.61,51422,4.5,72146.8,-28.71,-43.61,-44.33,0,*6C
1483675637.88,51423,4.5,72142.3,-28.71,-43.61,-44.33,0,*6D
1483675639.15,51424,4.56,72134.0,-28.71,-43.61,-44.33,0,*6A
1483675640.43,51425,4.5,72132.0,-28.71,-44.01,-44.67,0,*6B
1483675641.71,51426,4.56,72132.8,-28.71,-43.81,-44.47,0,*65
1483675642.98,51427,4.56,72124.8,-28.71,-44.13,-44.61,0,*6C
1483675644.21,51428,4.5,72100.0,-28.71,-44.07,-44.53,0,*67
1483675645.48,51429,4.5,72108.8,-28.71,-43.75,-44.33,0,*62
1483675646.75,51430,4.5,72102.0,-28.71,-43.75,-44.33,0,*6A
1483675648.02,51431,4.56,72108.5,-28.71,-43.41,-44.21,0,*6F
1483675649.29,51432,4.56,72112.3,-28.71,-43.61,-44.33,0,*6D
1483675650.55,51433,4.5,72106.0,-28.71,-43.55,-44.07,0,*6C
1483675651.82,51434,4.5,72094.8,-28.71,-43.67,-44.41,0,*68
1483675653.11,51435,4.5,72108.8,-28.71,-43.67,-44.33,0,*6C
1483675654.37,51436,4.56,72100.5,-28.71,-43.67,-44.53,0,*69
1483675655.63,51437,4.5,72096.5,-28.71,-43.49,-44.13,0,*60
1483675656.87,51438,4.5,72110.3,-28.71,-43.75,-44.53,0,*64
1483675658.11,51439,4.5,72108.5,-28.67,-43.87,-44.53,0,*6F
1483675659.4,51440,4.5,72104.3,-28.71,-43.55,-44.13,0,*6D
1483675660.65,51441,4.5,72120.3,-28.67,-43.75,-44.53,0,*6D
1483675661.89,51442,4.5,72118.8,-28.71,-43.75,-44.41,0,*6A
1483675663.14,51443,4.5,72112.5,-28.67,-43.49,-44.27,0,*63
1483675664.41,51444,4.5,72104.3,-28.71,-43.29,-44.07,0,*67
1483675665.65,51445,4.5,72104.8,-28.67,-43.75,-44.53,0,*69
1483675666.89,51446,4.5,72120.0,-28.71,-44.07,-44.79,0,*67
1483675668.12,51447,4.5,72120.5,-28.71,-43.87,-44.53,0,*61
1483675669.39,51448,4.5,72122.0,-28.71,-43.67,-44.41,0,*63
1483675670.65,51449,4.5,72120.3,-28.71,-43.67,-44.41,0,*62
1483675671.89,51450,4.5,72130.3,-28.71,-43.75,-44.61,0,*6B
1483675673.16,51451,4.56,72122.5,-28.71,-43.55,-44.53,0,*69
1483675674.39,51452,4.5,72122.0,-28.71,-43.75,-44.53,0,*68
1483675675.64,51453,4.5,72130.5,-28.71,-44.07,-44.79,0,*63
1483675676.88,51454,4.5,72126.3,-28.67,-44.07,-44.79,0,*63
1483675678.12,51455,4.5,72142.0,-28.71,-43.87,-44.79,0,*6A
1483675679.38,51456,4.5,72150.8,-28.71,-43.35,-44.33,0,*6E
1483675680.65,51457,4.56,72162.3,-28.71,-43.29,-44.27,0,*67
1483675681.92,51458,4.5,72154.8,-28.71,-43.09,-44.07,0,*68
1483675683.18,51459,4.5,72158.5,-28.71,-43.55,-44.41,0,*62
1483675684.44,51460,4.5,72152.3,-28.71,-43.55,-44.53,0,*6B
1483675685.7,51461,4.5,72144.8,-28.71,-43.55,-44.41,0,*69
1483675686.97,51462,4.5,72144.3,-28.71,-43.55,-44.41,0,*6A
1483675688.24,51463,4.5,72146.8,-28.67,-43.55,-44.61,0,*6E
1483675689.51,51464,4.56,72156.8,-28.67,-43.09,-44.27,0,*62
1483675690.75,51465,4.5,72162.0,-28.71,-43.15,-44.41,0,*69
1483675692.01,51466,4.5,72164.5,-28.71,-43.35,-44.33,0,*6D
1483675693.28,51467,4.5,72168.5,-28.67,-43.55,-44.53,0,*6B
1483675694.55,51468,4.5,72172.0,-28.71,-43.95,-44.73,0,*6D
1483675695.82,51469,4.5,72160.5,-28.67,-43.95,-44.93,0,*65
1483675697.08,51470,4.5,72158.5,-28.71,-44.13,-45.13,0,*6A
1483675698.34,51471,4.5,72154.5,-28.67,-44.27,-45.21,0,*6A
1483675699.59,51472,4.5,72160.8,-28.67,-43.95,-44.99,0,*65
1483675700.85,51473,4.5,72152.3,-28.71,-43.67,-44.61,0,*69
1483675702.11,51474,4.5,72156.5,-28.71,-43.67,-44.53,0,*6F
1483675703.36,51475,4.5,72162.0,-28.71,-43.95,-44.79,0,*6B
1483675704.6,51476,4.5,72158.3,-28.67,-43.87,-44.79,0,*6C